"read_dt","SO2 (ppb)","flags","PMT voltage (V)","lamp voltage (V)","lamp intensity (Hz)","internal temp (C)","react chamber temp (C)","sample flow (l/min)","pres (mmHg)","SO2 bkg (ppb)","SO2 coefficient"
2014-05-06 00:00:00,2699E-2,5C000400,-0724,1040,10223,028.3,045.3,0.153,760.2,01.16,0.508
2014-05-06 00:01:00,2767E-2,5C000400,-0724,1041,10116,028.4,045.3,0.153,760.1,01.16,0.508
2014-05-06 00:02:00,2698E-2,5C000400,-0724,1040,10075,028.4,045.3,0.153,760.1,01.16,0.508
2014-05-06 00:03:00,2723E-2,5C000400,-0724,1040,10039,028.4,045.3,0.153,760.1,01.16,0.508
2014-05-06 00:04:00,2769E-2,5C000400,-0724,1038,10155,028.4,045.3,0.153,760.1,01.16,0.508
2014-05-06 00:05:00,2741E-2,5C000400,-0724,1038,10265,028.4,045.3,0.153,760.1,01.16,0.508
2014-05-06 00:06:00,2740E-2,5C000400,-0724,1039,10003,028.4,045.3,0.153,760.2,01.16,0.508
2014-05-06 00:07:00,2705E-2,5C000400,-0724,1039,10085,028.4,045.3,0.153,760.1,01.16,0.508
2014-05-06 00:08:00,2709E-2,5C000410,-0724,1040,10100,028.4,045.3,0.153,760.1,01.16,0.508
2014-05-06 00:09:00,2747E-2,5C000400,-0724,1039,10143,028.4,045.3,0.153,760.1,01.16,0.508
2014-05-06 00:10:00,2700E-2,5C000400,-0724,1039,10103,028.4,045.3,0.153,760.1,01.16,0.508
2014-05-06 00:11:00,2713E-2,5C000400,-0724,1039,10030,028.4,045.3,0.153,760.1,01.16,0.508
2014-05-06 00:12:00,2721E-2,5C000400,-0724,1039,10218,028.4,045.3,0.153,760.1,01.16,0.508
2014-05-06 00:13:00,2722E-2,5C000400,-0724,1039,10038,028.4,045.3,0.153,760.1,01.16,0.508
2014-05-06 00:14:00,2749E-2,5C000400,-0724,1039,10241,028.4,045.3,0.153,760.1,01.16,0.508
2014-05-06 00:15:00,2713E-2,5C000400,-0724,1040,10057,028.4,045.3,0.153,760.1,01.16,0.508
2014-05-06 00:16:00,2738E-2,5C000400,-0724,1039,9917,028.4,045.3,0.153,760.1,01.16,0.508
2014-05-06 00:17:00,2720E-2,5C000400,-0724,1038,10054,028.4,045.3,0.153,760.1,01.16,0.508
2014-05-06 00:18:00,2712E-2,5C000400,-0724,1038,10167,028.4,045.4,0.153,760.1,01.16,0.508
2014-05-06 00:19:00,2747E-2,5C000400,-0724,1038,10140,028.5,045.3,0.153,760.1,01.16,0.508
2014-05-06 00:20:00,2720E-2,5C000400,-0724,1038,10200,028.4,045.3,0.153,760.1,01.16,0.508
2014-05-06 00:21:00,2745E-2,5C000400,-0724,1038,10211,028.4,045.3,0.153,760.0,01.16,0.508
2014-05-06 00:22:00,2762E-2,5C000400,-0724,1038,10253,028.4,045.3,0.153,760.0,01.16,0.508
2014-05-06 00:23:00,2715E-2,5C000400,-0724,1036,10102,028.5,045.3,0.153,760.0,01.16,0.508
2014-05-06 00:24:00,2713E-2,5C000400,-0724,1037,10081,028.5,045.3,0.153,760.1,01.16,0.508
2014-05-06 00:25:00,2763E-2,5C000400,-0724,1037,10148,028.4,045.3,0.153,760.1,01.16,0.508
2014-05-06 00:26:00,2740E-2,5C000400,-0724,1038,10320,028.4,045.3,0.153,760.0,01.16,0.508
2014-05-06 00:27:00,2748E-2,5C000400,-0724,1037,9974,028.5,045.3,0.153,760.0,01.16,0.508
2014-05-06 00:28:00,2718E-2,5C000400,-0724,1037,10132,028.5,045.3,0.153,760.0,01.16,0.508
2014-05-06 00:29:00,2733E-2,5C000400,-0724,1036,10042,028.5,045.3,0.153,760.1,01.16,0.508
2014-05-06 00:30:00,2772E-2,5C000400,-0724,1037,10293,028.5,045.3,0.153,760.0,01.16,0.508
2014-05-06 00:31:00,2711E-2,5C000400,-0724,1037,10155,028.5,045.3,0.153,760.0,01.16,0.508
2014-05-06 00:32:00,2735E-2,5C000400,-0724,1037,10082,028.5,045.3,0.153,760.0,01.16,0.508
2014-05-06 00:33:00,2735E-2,5C000400,-0724,1036,9989,028.5,045.3,0.153,760.0,01.16,0.508
2014-05-06 00:34:00,2799E-2,5C000400,-0724,1036,10242,028.5,045.3,0.153,760.0,01.16,0.508
2014-05-06 00:35:00,2750E-2,5C000400,-0724,1035,10049,028.5,045.3,0.153,759.9,01.16,0.508
2014-05-06 00:36:00,2719E-2,5C000410,-0724,1036,10245,028.4,045.3,0.153,759.9,01.16,0.508
2014-05-06 00:37:00,2708E-2,5C000400,-0724,1035,9957,028.5,045.3,0.153,759.9,01.16,0.508
2014-05-06 00:38:00,2736E-2,5C000400,-0724,1036,9997,028.4,045.3,0.153,760.0,01.16,0.508
2014-05-06 00:39:00,2704E-2,5C000400,-0724,1036,10205,028.5,045.3,0.153,760.0,01.16,0.508
2014-05-06 00:40:00,2709E-2,5C000400,-0724,1037,10187,028.5,045.3,0.153,759.9,01.16,0.508
2014-05-06 00:41:00,2712E-2,5C000400,-0724,1035,10223,028.5,045.3,0.153,759.9,01.16,0.508
2014-05-06 00:42:00,2701E-2,5C000400,-0724,1035,10136,028.5,045.3,0.153,759.9,01.16,0.508
2014-05-06 00:43:00,2699E-2,5C000400,-0724,1035,10045,028.5,045.3,0.153,759.9,01.16,0.508
2014-05-06 00:44:00,2737E-2,5C000400,-0724,1034,10112,028.5,045.3,0.153,760.0,01.16,0.508
2014-05-06 00:45:00,2735E-2,5C000400,-0724,1035,10191,028.5,045.3,0.153,760.0,01.16,0.508
2014-05-06 00:46:00,2715E-2,5C000400,-0724,1035,10188,028.5,045.3,0.153,760.0,01.16,0.508
2014-05-06 00:47:00,2727E-2,5C000400,-0724,1035,10061,028.5,045.3,0.153,759.9,01.16,0.508
2014-05-06 00:48:00,2785E-2,5C000400,-0724,1034,10190,028.5,045.3,0.153,759.9,01.16,0.508
2014-05-06 00:49:00,2738E-2,5C000400,-0724,1034,10080,028.5,045.3,0.153,759.9,01.16,0.508
2014-05-06 00:50:00,2758E-2,5C000400,-0724,1035,10067,028.5,045.3,0.153,759.9,01.16,0.508
2014-05-06 00:51:00,2778E-2,5C000400,-0724,1034,10264,028.5,045.3,0.153,759.9,01.16,0.508
2014-05-06 00:52:00,2715E-2,5C000400,-0724,1035,10242,028.5,045.3,0.153,759.9,01.16,0.508
2014-05-06 00:53:00,2724E-2,5C000400,-0724,1034,10190,028.5,045.3,0.153,759.9,01.16,0.508
2014-05-06 00:54:00,2776E-2,5C000400,-0724,1034,10113,028.5,045.3,0.153,759.9,01.16,0.508
2014-05-06 00:55:00,2727E-2,5C000400,-0724,1033,10081,028.5,045.3,0.153,759.9,01.16,0.508
2014-05-06 00:56:00,2743E-2,5C000400,-0724,1033,10103,028.5,045.3,0.153,759.9,01.16,0.508
2014-05-06 00:57:00,2731E-2,5C000400,-0724,1033,10105,028.5,045.4,0.153,759.9,01.16,0.508
2014-05-06 00:58:00,2723E-2,5C000400,-0724,1033,10269,028.5,045.3,0.153,759.9,01.16,0.508
2014-05-06 00:59:00,2786E-2,5C000410,-0724,1032,9978,028.5,045.3,0.152,759.9,01.16,0.508
2014-05-06 01:00:00,2744E-2,5C000400,-0724,1033,10083,028.5,045.3,0.153,759.9,01.16,0.508
2014-05-06 01:01:00,2713E-2,5C000400,-0724,1033,10067,028.5,045.3,0.153,760.0,01.16,0.508
2014-05-06 01:02:00,2727E-2,5C000400,-0724,1033,10227,028.5,045.3,0.152,760.0,01.16,0.508
2014-05-06 01:03:00,2725E-2,5C000400,-0724,1033,10110,028.5,045.3,0.152,760.0,01.16,0.508
2014-05-06 01:04:00,2692E-2,5C000400,-0724,1033,10251,028.5,045.3,0.152,759.9,01.16,0.508
2014-05-06 01:05:00,2712E-2,5C000400,-0724,1031,10183,028.5,045.3,0.152,760.0,01.16,0.508
2014-05-06 01:06:00,2694E-2,5C000400,-0724,1032,10156,028.5,045.3,0.152,760.0,01.16,0.508
2014-05-06 01:07:00,2768E-2,5C000400,-0724,1033,10339,028.5,045.3,0.152,760.0,01.16,0.508
2014-05-06 01:08:00,2714E-2,5C000400,-0724,1032,10132,028.5,045.3,0.152,759.9,01.16,0.508
2014-05-06 01:09:00,2732E-2,5C000400,-0724,1032,10210,028.5,045.3,0.152,760.0,01.16,0.508
2014-05-06 01:10:00,2729E-2,5C000400,-0724,1032,10004,028.5,045.3,0.152,760.0,01.16,0.508
2014-05-06 01:11:00,2734E-2,5C000400,-0724,1031,10234,028.6,045.3,0.152,760.0,01.16,0.508
2014-05-06 01:12:00,2740E-2,5C000400,-0724,1031,10113,028.5,045.3,0.152,760.0,01.16,0.508
2014-05-06 01:13:00,2718E-2,5C000400,-0724,1032,10117,028.5,045.3,0.152,760.0,01.16,0.508
2014-05-06 01:14:00,2687E-2,5C000400,-0724,1032,10172,028.5,045.3,0.152,760.0,01.16,0.508
2014-05-06 01:15:00,2743E-2,5C000400,-0724,1032,9942,028.5,045.3,0.152,759.9,01.16,0.508
2014-05-06 01:16:00,2716E-2,5C000400,-0724,1032,10162,028.5,045.3,0.152,760.0,01.16,0.508
2014-05-06 01:17:00,2720E-2,5C000400,-0724,1032,10225,028.5,045.3,0.152,760.1,01.16,0.508
2014-05-06 01:18:00,2700E-2,5C000400,-0724,1032,10266,028.6,045.4,0.152,760.1,01.16,0.508
2014-05-06 01:19:00,2726E-2,5C000400,-0724,1031,10170,028.6,045.3,0.152,760.0,01.16,0.508
2014-05-06 01:20:00,2741E-2,5C000400,-0724,1031,10208,028.5,045.3,0.152,760.0,01.16,0.508
2014-05-06 01:21:00,2762E-2,5C000400,-0724,1030,10407,028.5,045.3,0.152,760.0,01.16,0.508
2014-05-06 01:22:00,2724E-2,5C000400,-0724,1031,10240,028.6,045.3,0.152,760.1,01.16,0.508
2014-05-06 01:23:00,2743E-2,5C000400,-0724,1032,10079,028.6,045.3,0.152,760.1,01.16,0.508
2014-05-06 01:24:00,2765E-2,5C000400,-0724,1031,10312,028.5,045.3,0.152,760.1,01.16,0.508
2014-05-06 01:25:00,2779E-2,5C000400,-0724,1030,10357,028.5,045.3,0.152,760.1,01.16,0.508
2014-05-06 01:26:00,2743E-2,5C000400,-0724,1032,10030,028.6,045.3,0.152,760.1,01.16,0.508
2014-05-06 01:27:00,2750E-2,5C000400,-0724,1030,10229,028.5,045.3,0.152,760.1,01.16,0.508
2014-05-06 01:28:00,2693E-2,5C000400,-0724,1031,10241,028.6,045.4,0.152,760.2,01.16,0.508
2014-05-06 01:29:00,2759E-2,5C000400,-0724,1031,10138,028.6,045.4,0.152,760.2,01.16,0.508
2014-05-06 01:30:00,2716E-2,5C000400,-0724,1032,10176,028.6,045.3,0.152,760.2,01.16,0.508
2014-05-06 01:31:00,2747E-2,5C000400,-0724,1032,9844,028.6,045.4,0.152,760.1,01.16,0.508
2014-05-06 01:32:00,2754E-2,5C000400,-0724,1031,10200,028.6,045.3,0.152,760.1,01.16,0.508
2014-05-06 01:33:00,2769E-2,5C000400,-0724,1030,10270,028.6,045.3,0.152,760.2,01.16,0.508
2014-05-06 01:34:00,2760E-2,5C000400,-0724,1030,10212,028.6,045.4,0.152,760.2,01.16,0.508
2014-05-06 01:35:00,2743E-2,5C000400,-0724,1031,10186,028.6,045.3,0.152,760.1,01.16,0.508
2014-05-06 01:36:00,2713E-2,5C000400,-0724,1031,10184,028.6,045.3,0.152,760.1,01.16,0.508
2014-05-06 01:37:00,2722E-2,5C000400,-0724,1031,10174,028.6,045.3,0.152,760.2,01.16,0.508
2014-05-06 01:38:00,2739E-2,5C000400,-0724,1031,10241,028.6,045.3,0.152,760.2,01.16,0.508
2014-05-06 01:39:00,2753E-2,5C000400,-0724,1030,10314,028.6,045.3,0.152,760.2,01.16,0.508
2014-05-06 01:40:00,2706E-2,5C000400,-0724,1030,10403,028.6,045.3,0.152,760.2,01.16,0.508
2014-05-06 01:41:00,2740E-2,5C000400,-0724,1030,10156,028.6,045.3,0.152,760.1,01.16,0.508
2014-05-06 01:42:00,2730E-2,5C000400,-0724,1030,10364,028.6,045.3,0.152,760.1,01.16,0.508
2014-05-06 01:43:00,2743E-2,5C000400,-0724,1030,10183,028.6,045.3,0.152,760.1,01.16,0.508
2014-05-06 01:44:00,2765E-2,5C000410,-0724,1030,10120,028.6,045.4,0.152,760.1,01.16,0.508
2014-05-06 01:45:00,2777E-2,5C000400,-0724,1030,10263,028.6,045.3,0.152,760.1,01.16,0.508
2014-05-06 01:46:00,2761E-2,5C000400,-0724,1030,10214,028.6,045.3,0.152,760.2,01.16,0.508
2014-05-06 01:47:00,2763E-2,5C000400,-0724,1030,10186,028.6,045.3,0.152,760.1,01.16,0.508
2014-05-06 01:48:00,2712E-2,5C000400,-0724,1030,10373,028.6,045.4,0.152,760.1,01.16,0.508
2014-05-06 01:49:00,2798E-2,5C000400,-0724,1030,10153,028.6,045.4,0.152,760.1,01.16,0.508
2014-05-06 01:50:00,2728E-2,5C000410,-0724,1029,10292,028.6,045.4,0.152,760.1,01.16,0.508
2014-05-06 01:51:00,2695E-2,5C000400,-0724,1031,10249,028.6,045.4,0.152,760.2,01.16,0.508
2014-05-06 01:52:00,2775E-2,5C000400,-0724,1031,10210,028.7,045.4,0.152,760.1,01.16,0.508
2014-05-06 01:53:00,2717E-2,5C000400,-0724,1029,10329,028.7,045.3,0.152,760.1,01.16,0.508
2014-05-06 01:54:00,2734E-2,5C000400,-0724,1030,10101,028.7,045.3,0.152,760.1,01.16,0.508
2014-05-06 01:55:00,2733E-2,5C000400,-0724,1031,10209,028.7,045.3,0.152,760.1,01.16,0.508
2014-05-06 01:56:00,2732E-2,5C000400,-0724,1031,10280,028.7,045.3,0.152,760.1,01.16,0.508
2014-05-06 01:57:00,2802E-2,5C000400,-0724,1029,10222,028.7,045.3,0.152,760.2,01.16,0.508
2014-05-06 01:58:00,2741E-2,5C000400,-0724,1030,10282,028.7,045.3,0.152,760.1,01.16,0.508
2014-05-06 01:59:00,2790E-2,5C000400,-0724,1030,10311,028.7,045.3,0.152,760.2,01.16,0.508
2014-05-06 02:00:00,2744E-2,5C000400,-0724,1031,10145,028.7,045.3,0.152,760.2,01.16,0.508
2014-05-06 02:01:00,2750E-2,5C000400,-0724,1032,10141,028.7,045.3,0.152,760.1,01.16,0.508
2014-05-06 02:02:00,2718E-2,5C000400,-0724,1031,10134,028.7,045.3,0.152,760.2,01.16,0.508
2014-05-06 02:03:00,2771E-2,5C000400,-0724,1032,10041,028.8,045.3,0.152,760.2,01.16,0.508
2014-05-06 02:04:00,2738E-2,5C000400,-0724,1033,10264,028.8,045.3,0.152,760.2,01.16,0.508
2014-05-06 02:05:00,2786E-2,5C000400,-0724,1033,10220,028.8,045.3,0.152,760.1,01.16,0.508
2014-05-06 02:06:00,2740E-2,5C000400,-0724,1034,10162,028.8,045.4,0.152,760.2,01.16,0.508
2014-05-06 02:07:00,2779E-2,5C000400,-0724,1033,10337,028.8,045.4,0.152,760.2,01.16,0.508
2014-05-06 02:08:00,2782E-2,5C000400,-0724,1033,10231,028.8,045.3,0.152,760.2,01.16,0.508
2014-05-06 02:09:00,2794E-2,5C000400,-0724,1033,10075,028.8,045.4,0.152,760.2,01.16,0.508
2014-05-06 02:10:00,2748E-2,5C000400,-0724,1033,10273,028.8,045.3,0.152,760.2,01.16,0.508
2014-05-06 02:11:00,2745E-2,5C000400,-0724,1034,10125,028.8,045.3,0.152,760.2,01.16,0.508
2014-05-06 02:12:00,2761E-2,5C000400,-0724,1034,10133,028.8,045.4,0.152,760.2,01.16,0.508
2014-05-06 02:13:00,2778E-2,5C000400,-0724,1034,10000,028.8,045.4,0.152,760.1,01.16,0.508
2014-05-06 02:14:00,2746E-2,5C000400,-0724,1033,10239,028.8,045.4,0.152,760.1,01.16,0.508
2014-05-06 02:15:00,2756E-2,5C000400,-0724,1034,10107,028.8,045.3,0.152,760.1,01.16,0.508
2014-05-06 02:16:00,2766E-2,5C000400,-0724,1035,10161,028.8,045.3,0.152,760.2,01.16,0.508
2014-05-06 02:17:00,2775E-2,5C000400,-0724,1034,10171,028.8,045.3,0.152,760.2,01.16,0.508
2014-05-06 02:18:00,2782E-2,5C000400,-0724,1035,10109,028.9,045.4,0.152,760.1,01.16,0.508
2014-05-06 02:19:00,2765E-2,5C000400,-0724,1035,10210,028.8,045.4,0.152,760.1,01.16,0.508
2014-05-06 02:20:00,2800E-2,5C000400,-0724,1035,10229,028.9,045.4,0.152,760.2,01.16,0.508
2014-05-06 02:21:00,2786E-2,5C000400,-0724,1036,10260,028.9,045.3,0.152,760.1,01.16,0.508
2014-05-06 02:22:00,2819E-2,5C000400,-0724,1036,10163,028.9,045.3,0.152,760.1,01.16,0.508
2014-05-06 02:23:00,2768E-2,5C000400,-0724,1036,10210,028.9,045.3,0.151,760.1,01.16,0.508
2014-05-06 02:24:00,2787E-2,5C000400,-0724,1035,10184,028.9,045.3,0.152,760.2,01.16,0.508
2014-05-06 02:25:00,2796E-2,5C000400,-0724,1036,10144,028.9,045.4,0.151,760.2,01.16,0.508
2014-05-06 02:26:00,2781E-2,5C000400,-0724,1036,10200,028.9,045.4,0.152,760.1,01.16,0.508
2014-05-06 02:27:00,2784E-2,5C000400,-0724,1037,10167,028.9,045.3,0.151,760.0,01.16,0.508
2014-05-06 02:28:00,2806E-2,5C000400,-0724,1036,10103,029.0,045.3,0.151,760.1,01.16,0.508
2014-05-06 02:29:00,2809E-2,5C000400,-0724,1037,10300,028.9,045.3,0.151,760.1,01.16,0.508
2014-05-06 02:30:00,2790E-2,5C000400,-0724,1037,10229,029.0,045.3,0.151,760.1,01.16,0.508
2014-05-06 02:31:00,2768E-2,5C000400,-0724,1035,10155,029.0,045.4,0.151,760.1,01.16,0.508
2014-05-06 02:32:00,2783E-2,5C000400,-0724,1037,10144,029.0,045.4,0.151,760.1,01.16,0.508
2014-05-06 02:33:00,2756E-2,5C000400,-0724,1035,10302,029.0,045.4,0.151,760.0,01.16,0.508
2014-05-06 02:34:00,2755E-2,5C000400,-0724,1035,10123,029.0,045.4,0.151,760.1,01.16,0.508
2014-05-06 02:35:00,2748E-2,5C000400,-0724,1036,10174,029.0,045.4,0.151,760.1,01.16,0.508
2014-05-06 02:36:00,2739E-2,5C000400,-0724,1036,10206,029.0,045.3,0.151,760.1,01.16,0.508
2014-05-06 02:37:00,2795E-2,5C000400,-0724,1038,10197,029.0,045.3,0.151,760.1,01.16,0.508
2014-05-06 02:38:00,2740E-2,5C000400,-0724,1037,10210,029.0,045.4,0.151,760.1,01.16,0.508
2014-05-06 02:39:00,2751E-2,5C000410,-0724,1037,9986,029.0,045.4,0.151,760.0,01.16,0.508
2014-05-06 02:40:00,2768E-2,5C000400,-0724,1037,10215,029.0,045.3,0.151,760.0,01.16,0.508
2014-05-06 02:41:00,2752E-2,5C000400,-0724,1035,10181,029.0,045.3,0.151,760.1,01.16,0.508
2014-05-06 02:42:00,2765E-2,5C000400,-0724,1036,10117,029.1,045.3,0.151,760.0,01.16,0.508
2014-05-06 02:43:00,2794E-2,5C000400,-0724,1037,10276,029.0,045.3,0.151,760.1,01.16,0.508
2014-05-06 02:44:00,2744E-2,5C000400,-0724,1035,10262,029.1,045.4,0.151,760.1,01.16,0.508
2014-05-06 02:45:00,2707E-2,5C000400,-0724,1035,10183,029.1,045.4,0.151,760.1,01.16,0.508
2014-05-06 02:46:00,2753E-2,5C000400,-0724,1036,10186,029.1,045.3,0.151,760.0,01.16,0.508
2014-05-06 02:47:00,2763E-2,5C000400,-0724,1035,10135,029.1,045.3,0.151,760.0,01.16,0.508
2014-05-06 02:48:00,2794E-2,5C000400,-0724,1035,10051,029.1,045.3,0.151,760.0,01.16,0.508
2014-05-06 02:49:00,2783E-2,5C000400,-0724,1036,10195,029.1,045.3,0.151,760.0,01.16,0.508
2014-05-06 02:50:00,2758E-2,5C000400,-0724,1037,9987,029.1,045.4,0.151,760.1,01.16,0.508
2014-05-06 02:51:00,2770E-2,5C000400,-0724,1037,10000,029.1,045.4,0.151,760.0,01.16,0.508
2014-05-06 02:52:00,2702E-2,5C000400,-0724,1038,10140,029.1,045.4,0.151,759.9,01.16,0.508
2014-05-06 02:53:00,2783E-2,5C000410,-0724,1037,10061,029.1,045.4,0.151,760.0,01.16,0.508
2014-05-06 02:54:00,2767E-2,5C000400,-0724,1038,10253,029.1,045.4,0.151,760.0,01.16,0.508
2014-05-06 02:55:00,2774E-2,5C000400,-0724,1038,10118,029.1,045.4,0.151,759.9,01.16,0.508
2014-05-06 02:56:00,2779E-2,5C000400,-0724,1037,10234,029.1,045.4,0.151,759.9,01.16,0.508
2014-05-06 02:57:00,2804E-2,5C000400,-0724,1039,10145,029.2,045.4,0.151,759.9,01.16,0.508
2014-05-06 02:58:00,2781E-2,5C000400,-0724,1039,10164,029.1,045.4,0.151,759.9,01.16,0.508
2014-05-06 02:59:00,2807E-2,5C000400,-0724,1039,10027,029.2,045.4,0.151,759.9,01.16,0.508
2014-05-06 03:00:00,2798E-2,5C000400,-0724,1037,10267,029.2,045.4,0.151,759.9,01.16,0.508
2014-05-06 03:01:00,2742E-2,5C000400,-0724,1038,10240,029.2,045.4,0.151,759.9,01.16,0.508
2014-05-06 03:02:00,2772E-2,5C000400,-0724,1039,10103,029.2,045.4,0.151,759.8,01.16,0.508
2014-05-06 03:03:00,2791E-2,5C000400,-0724,1038,10206,029.2,045.4,0.151,759.8,01.16,0.508
2014-05-06 03:04:00,2781E-2,5C000400,-0724,1038,10130,029.2,045.4,0.151,759.8,01.16,0.508
2014-05-06 03:05:00,2762E-2,5C000400,-0724,1038,9961,029.2,045.4,0.151,759.8,01.16,0.508
2014-05-06 03:06:00,2788E-2,5C000400,-0724,1039,10148,029.2,045.4,0.151,759.8,01.16,0.508
2014-05-06 03:07:00,2763E-2,5C000400,-0724,1038,10068,029.2,045.4,0.151,759.8,01.16,0.508
2014-05-06 03:08:00,2828E-2,5C000400,-0724,1039,10199,029.2,045.4,0.151,759.8,01.16,0.508
2014-05-06 03:09:00,2742E-2,5C000400,-0724,1039,10323,029.2,045.4,0.151,759.8,01.16,0.508
2014-05-06 03:10:00,2786E-2,5C000400,-0724,1037,9993,029.2,045.4,0.151,759.8,01.16,0.508
2014-05-06 03:11:00,2794E-2,5C000410,-0724,1038,10165,029.2,045.3,0.151,759.8,01.16,0.508
2014-05-06 03:12:00,2797E-2,5C000400,-0724,1037,10104,029.2,045.4,0.151,759.8,01.16,0.508
2014-05-06 03:13:00,2785E-2,5C000400,-0724,1038,10050,029.2,045.3,0.151,759.8,01.16,0.508
2014-05-06 03:14:00,2743E-2,5C000400,-0724,1037,10104,029.3,045.4,0.151,759.8,01.16,0.508
2014-05-06 03:15:00,2739E-2,5C000400,-0724,1038,10153,029.3,045.4,0.151,759.8,01.16,0.508
2014-05-06 03:16:00,2745E-2,5C000400,-0724,1038,10104,029.2,045.4,0.151,759.8,01.16,0.508
2014-05-06 03:17:00,2749E-2,5C000400,-0724,1039,10190,029.2,045.4,0.151,759.8,01.16,0.508
2014-05-06 03:18:00,2733E-2,5C000410,-0724,1038,9949,029.2,045.4,0.151,759.8,01.16,0.508
2014-05-06 03:19:00,2771E-2,5C000400,-0724,1039,10309,029.3,045.4,0.151,759.8,01.16,0.508
2014-05-06 03:20:00,2754E-2,5C000400,-0724,1039,10002,029.3,045.4,0.151,759.8,01.16,0.508
2014-05-06 03:21:00,2747E-2,5C000400,-0724,1038,9825,029.2,045.3,0.151,759.8,01.16,0.508
2014-05-06 03:22:00,2785E-2,5C000400,-0724,1040,10189,029.3,045.4,0.151,759.8,01.16,0.508
2014-05-06 03:23:00,2744E-2,5C000400,-0724,1038,10271,029.3,045.4,0.151,759.8,01.16,0.508
2014-05-06 03:24:00,2805E-2,5C000400,-0724,1038,10058,029.3,045.4,0.151,759.8,01.16,0.508
2014-05-06 03:25:00,2764E-2,5C000400,-0724,1038,10054,029.3,045.4,0.151,759.8,01.16,0.508
2014-05-06 03:26:00,2802E-2,5C000400,-0724,1039,10142,029.3,045.4,0.150,759.8,01.16,0.508
2014-05-06 03:27:00,2773E-2,5C000400,-0724,1039,10045,029.3,045.4,0.151,759.8,01.16,0.508
2014-05-06 03:28:00,2763E-2,5C000400,-0724,1039,10127,029.3,045.4,0.151,759.8,01.16,0.508
2014-05-06 03:29:00,2777E-2,5C000400,-0724,1038,10175,029.3,045.4,0.151,759.9,01.16,0.508
2014-05-06 03:30:00,2754E-2,5C000400,-0724,1036,10142,029.3,045.4,0.151,759.9,01.16,0.508
2014-05-06 03:31:00,2767E-2,5C000400,-0724,1037,10011,029.3,045.4,0.150,760.0,01.16,0.508
2014-05-06 03:32:00,2749E-2,5C000400,-0724,1037,10175,029.3,045.4,0.150,760.0,01.16,0.508
2014-05-06 03:33:00,2813E-2,5C000400,-0724,1036,10306,029.3,045.4,0.150,760.0,01.16,0.508
2014-05-06 03:34:00,2767E-2,5C000400,-0724,1035,10174,029.3,045.4,0.150,759.9,01.16,0.508
2014-05-06 03:35:00,2769E-2,5C000400,-0724,1036,10290,029.4,045.4,0.150,759.9,01.16,0.508
2014-05-06 03:36:00,2796E-2,5C000400,-0724,1034,10150,029.3,045.4,0.150,760.0,01.16,0.508
2014-05-06 03:37:00,2794E-2,5C000400,-0724,1034,10011,029.3,045.4,0.150,760.0,01.16,0.508
2014-05-06 03:38:00,2781E-2,5C000400,-0724,1034,10209,029.3,045.4,0.150,760.0,01.16,0.508
2014-05-06 03:39:00,2801E-2,5C000400,-0724,1034,10212,029.4,045.4,0.150,760.0,01.16,0.508
2014-05-06 03:40:00,2736E-2,5C000400,-0724,1032,10224,029.3,045.4,0.150,759.9,01.16,0.508
2014-05-06 03:41:00,2768E-2,5C000400,-0724,1032,10210,029.4,045.4,0.150,759.8,01.16,0.508
2014-05-06 03:42:00,2752E-2,5C000400,-0724,1032,10289,029.4,045.4,0.150,759.9,01.16,0.508
2014-05-06 03:43:00,2770E-2,5C000400,-0724,1033,10273,029.4,045.4,0.150,759.9,01.16,0.508
2014-05-06 03:44:00,2792E-2,5C000400,-0724,1032,10059,029.4,045.4,0.150,759.9,01.16,0.508
2014-05-06 03:45:00,2766E-2,5C000400,-0724,1031,10173,029.4,045.4,0.150,759.9,01.16,0.508
2014-05-06 03:46:00,2751E-2,5C000400,-0724,1030,10369,029.4,045.4,0.150,759.8,01.16,0.508
2014-05-06 03:47:00,2789E-2,5C000400,-0724,1030,10202,029.4,045.4,0.000,759.8,01.16,0.508
2014-05-06 03:48:00,2774E-2,5C000400,-0724,1032,10076,029.4,045.3,0.000,759.8,01.16,0.508
2014-05-06 03:49:00,2785E-2,5C000400,-0724,1031,10146,029.4,045.4,0.000,759.8,01.16,0.508
2014-05-06 03:50:00,2802E-2,5C000400,-0724,1030,10258,029.4,045.4,0.000,759.8,01.16,0.508
2014-05-06 03:51:00,2790E-2,5C000400,-0724,1031,10119,029.4,045.4,0.000,759.8,01.16,0.508
2014-05-06 03:52:00,2750E-2,5C000400,-0724,1031,10326,029.4,045.4,0.000,759.7,01.16,0.508
2014-05-06 03:53:00,2782E-2,5C000400,-0724,1031,10306,029.4,045.4,0.000,759.7,01.16,0.508
2014-05-06 03:54:00,2769E-2,5C000400,-0724,1029,10275,029.4,045.4,0.000,759.8,01.16,0.508
2014-05-06 03:55:00,2796E-2,5C000400,-0724,1029,10094,029.4,045.4,0.000,759.7,01.16,0.508
2014-05-06 03:56:00,2798E-2,5C000400,-0724,1029,10312,029.4,045.4,0.000,759.7,01.16,0.508
2014-05-06 03:57:00,2777E-2,5C000400,-0724,1030,10286,029.5,045.4,0.000,759.7,01.16,0.508
2014-05-06 03:58:00,2843E-2,5C000400,-0724,1030,10030,029.4,045.4,0.000,759.6,01.16,0.508
2014-05-06 03:59:00,2762E-2,5C000400,-0724,1029,10286,029.5,045.4,0.000,759.8,01.16,0.508
2014-05-06 04:00:00,2767E-2,5C000400,-0724,1030,10248,029.5,045.4,0.000,759.7,01.16,0.508
2014-05-06 04:01:00,2768E-2,5C000400,-0724,1030,9994,029.4,045.4,0.000,759.7,01.16,0.508
2014-05-06 04:02:00,2808E-2,5C000400,-0724,1029,10406,029.5,045.4,0.000,759.7,01.16,0.508
2014-05-06 04:03:00,2754E-2,5C000410,-0724,1029,10072,029.5,045.4,0.000,759.6,01.16,0.508
2014-05-06 04:04:00,2797E-2,5C000400,-0724,1029,10250,029.5,045.4,0.000,759.7,01.16,0.508
2014-05-06 04:05:00,2793E-2,5C000400,-0724,1029,10234,029.4,045.4,0.000,759.6,01.16,0.508
2014-05-06 04:06:00,2797E-2,5C000400,-0724,1030,10091,029.5,045.4,0.000,759.6,01.16,0.508
2014-05-06 04:07:00,2775E-2,5C000400,-0724,1029,10260,029.4,045.4,0.000,759.7,01.16,0.508
2014-05-06 04:08:00,2775E-2,5C000400,-0724,1030,10317,029.4,045.4,0.000,759.7,01.16,0.508
2014-05-06 04:09:00,2824E-2,5C000400,-0724,1029,10221,029.4,045.4,0.000,759.6,01.16,0.508
2014-05-06 04:10:00,2774E-2,5C000400,-0724,1030,10283,029.4,045.4,0.000,759.7,01.16,0.508
2014-05-06 04:11:00,2791E-2,5C000400,-0724,1029,10196,029.4,045.4,0.000,759.7,01.16,0.508
2014-05-06 04:12:00,2798E-2,5C000400,-0724,1030,10252,029.4,045.4,0.000,759.6,01.16,0.508
2014-05-06 04:13:00,2782E-2,5C000400,-0724,1028,10229,029.3,045.4,0.000,759.6,01.16,0.508
2014-05-06 04:14:00,2808E-2,5C000400,-0724,1028,10132,029.3,045.3,0.000,759.6,01.16,0.508
2014-05-06 04:15:00,2829E-2,5C000400,-0724,1029,10309,029.3,045.4,0.000,759.7,01.16,0.508
2014-05-06 04:16:00,2813E-2,5C000400,-0724,1029,10106,029.3,045.4,0.000,759.8,01.16,0.508
2014-05-06 04:17:00,2852E-2,5C000400,-0724,1029,10281,029.2,045.4,0.000,759.7,01.16,0.508
2014-05-06 04:18:00,2812E-2,5C000400,-0724,1028,10376,029.2,045.4,0.000,759.7,01.16,0.508
2014-05-06 04:19:00,2818E-2,5C000400,-0724,1028,10328,029.2,045.4,0.000,759.7,01.16,0.508
2014-05-06 04:20:00,2822E-2,5C000400,-0724,1029,10320,029.2,045.4,0.000,759.7,01.16,0.508